Location: Lahitte
(43.6596°N, 0.6805°E)
Time: 11:31:21
(UTC+00:00)

Cosmos 1980 Rocket - Pass Details

Date: 15 May 2026
Orbit: 827 x 850 km, 71.0° (Epoch: 9 June)

Event Time Altitude Azimuth Distance (km) Brightness Sun altitude
Rises 19:35:42 0° 335° (NNW) 3,424 6.4 -4.0°
Reaches altitude 10° 19:38:10 10° 336° (NNW) 2,483 5.6 -4.4°
Maximum altitude 19:43:54 85° 64° (ENE) 856 2.3 -5.2°
Drops below altitude 10° 19:49:34 10° 155° (SSE) 2,457 4.1 -6.1°
Enters shadow 19:51:18 - 155° (SSE) 3,121 4.6 -6.4°
